GLO6AC SLVR-SLLP

Flight info

Callsign GLO6AC
Flight time 0h 53m
Altitude 40000
Route SALBI UZ29 GUVAS DCT PUNAV UZ29 MOSGO DCT PAZ
Aircraft B737/M-SDE2E3FGHIRWXY/LB1

Departure

Time 2026-04-23 19:30
Airport Viru Viru International Airport (SLVR)

Arrival

Time 2026-04-23 20:23
Airport El Alto International Airport (SLLP)
Time Latitude Longitude Altitude Speed Heading
2026-04-23 19:10 -17.64764 -63.13976 1230 ft 0 kts 237°
2026-04-23 19:20 -17.64764 -63.13975 1230 ft 1 kts 237°
2026-04-23 19:20 -17.64751 -63.13953 1230 ft 4 kts 243°
2026-04-23 19:20 -17.64740 -63.13927 1230 ft 4 kts 254°
2026-04-23 19:20 -17.64737 -63.13900 1230 ft 4 kts 282°
2026-04-23 19:21 -17.64745 -63.13883 1230 ft 0 kts 326°
2026-04-23 19:22 -17.64742 -63.13885 1230 ft 2 kts 326°
2026-04-23 19:23 -17.64722 -63.13899 1230 ft 6 kts 326°
2026-04-23 19:23 -17.64677 -63.13930 1230 ft 10 kts 326°
2026-04-23 19:23 -17.64613 -63.13973 1230 ft 12 kts 327°
2026-04-23 19:24 -17.64490 -63.14003 1230 ft 9 kts 47°
2026-04-23 19:24 -17.64452 -63.13946 1230 ft 10 kts 56°
2026-04-23 19:24 -17.64357 -63.13856 1230 ft 9 kts 344°
2026-04-23 19:25 -17.64247 -63.13926 1230 ft 8 kts 327°
2026-04-23 19:25 -17.64146 -63.13994 1230 ft 11 kts 328°
2026-04-23 19:26 -17.63986 -63.14084 1230 ft 15 kts 359°
2026-04-23 19:26 -17.63911 -63.14002 1228 ft 17 kts 52°
2026-04-23 19:27 -17.63706 -63.14054 1228 ft 17 kts 327°
2026-04-23 19:27 -17.63342 -63.14301 1230 ft 23 kts 328°
2026-04-23 19:28 -17.63162 -63.14428 1228 ft 9 kts 108°
2026-04-23 19:28 -17.63191 -63.14399 1228 ft 0 kts 149°
2026-04-23 19:29 -17.63384 -63.14270 1230 ft 71 kts 147°
2026-04-23 19:29 -17.64853 -63.13271 1613 ft 152 kts 148°
2026-04-23 19:30 -17.66600 -63.11907 2967 ft 170 kts 125°
2026-04-23 19:30 -17.66841 -63.10669 3456 ft 187 kts 74°
2026-04-23 19:30 -17.64593 -63.09204 4487 ft 224 kts 358°
2026-04-23 19:31 -17.63048 -63.09673 4994 ft 247 kts 329°
2026-04-23 19:31 -17.61791 -63.11043 5386 ft 272 kts 295°
2026-04-23 19:31 -17.61460 -63.12964 6509 ft 272 kts 268°
2026-04-23 19:31 -17.61551 -63.14943 7687 ft 270 kts 270°
2026-04-23 19:32 -17.61221 -63.16913 8521 ft 284 kts 296°
2026-04-23 19:32 -17.60225 -63.18716 9578 ft 288 kts 305°
2026-04-23 19:32 -17.59080 -63.20451 10544 ft 295 kts 306°
2026-04-23 19:32 -17.57833 -63.22279 10990 ft 321 kts 307°
2026-04-23 19:33 -17.56516 -63.24216 11828 ft 330 kts 306°
2026-04-23 19:33 -17.55183 -63.26198 12817 ft 335 kts 306°
2026-04-23 19:33 -17.52488 -63.30259 14574 ft 344 kts 306°
2026-04-23 19:34 -17.51119 -63.32339 15346 ft 350 kts 305°
2026-04-23 19:34 -17.49728 -63.34457 16152 ft 355 kts 305°
2026-04-23 19:34 -17.46893 -63.38781 17812 ft 364 kts 305°
2026-04-23 19:35 -17.45449 -63.40982 18558 ft 369 kts 305°
2026-04-23 19:35 -17.43986 -63.43213 19221 ft 374 kts 305°
2026-04-23 19:35 -17.42501 -63.45477 19884 ft 379 kts 305°
2026-04-23 19:35 -17.40999 -63.47765 20544 ft 384 kts 305°
2026-04-23 19:36 -17.39478 -63.50084 21199 ft 389 kts 306°
2026-04-23 19:36 -17.37937 -63.52430 21830 ft 394 kts 305°
2026-04-23 19:36 -17.36375 -63.54807 22427 ft 399 kts 305°
2026-04-23 19:36 -17.34903 -63.57284 23006 ft 405 kts 294°
2026-04-23 19:37 -17.34167 -63.60138 23558 ft 411 kts 275°
2026-04-23 19:37 -17.34058 -63.63135 24094 ft 414 kts 271°
2026-04-23 19:37 -17.34035 -63.66158 24644 ft 416 kts 270°
2026-04-23 19:37 -17.34033 -63.69190 25213 ft 417 kts 270°
2026-04-23 19:38 -17.34027 -63.72233 25729 ft 420 kts 270°
2026-04-23 19:38 -17.34010 -63.75302 26238 ft 423 kts 269°
2026-04-23 19:38 -17.33981 -63.78384 26799 ft 424 kts 270°
2026-04-23 19:38 -17.33943 -63.81481 27331 ft 426 kts 270°
2026-04-23 19:39 -17.33900 -63.84554 27811 ft 429 kts 270°
2026-04-23 19:39 -17.33854 -63.87689 28298 ft 433 kts 270°
2026-04-23 19:39 -17.33805 -63.90888 28781 ft 435 kts 270°
2026-04-23 19:39 -17.33756 -63.94025 29250 ft 438 kts 270°
2026-04-23 19:40 -17.33706 -63.97218 29711 ft 441 kts 270°
2026-04-23 19:40 -17.33655 -64.00439 30167 ft 443 kts 270°
2026-04-23 19:40 -17.33604 -64.03674 30540 ft 446 kts 270°
2026-04-23 19:40 -17.33552 -64.06926 30912 ft 449 kts 270°
2026-04-23 19:41 -17.33499 -64.10201 31289 ft 451 kts 270°
2026-04-23 19:41 -17.33445 -64.13491 31674 ft 453 kts 270°
2026-04-23 19:41 -17.33390 -64.16795 32068 ft 454 kts 270°
2026-04-23 19:41 -17.33335 -64.20089 32585 ft 452 kts 271°
2026-04-23 19:42 -17.33280 -64.23382 33030 ft 453 kts 271°
2026-04-23 19:42 -17.33224 -64.26676 33476 ft 453 kts 271°
2026-04-23 19:42 -17.33168 -64.29970 34008 ft 452 kts 271°
2026-04-23 19:42 -17.33112 -64.33249 34489 ft 449 kts 272°
2026-04-23 19:43 -17.33055 -64.36517 34909 ft 449 kts 272°
2026-04-23 19:43 -17.32997 -64.39783 35305 ft 448 kts 272°
2026-04-23 19:43 -17.32940 -64.43041 35725 ft 447 kts 272°
2026-04-23 19:43 -17.32882 -64.46285 36135 ft 446 kts 272°
2026-04-23 19:44 -17.32823 -64.49526 36534 ft 445 kts 272°
2026-04-23 19:44 -17.32565 -64.52746 36875 ft 443 kts 282°
2026-04-23 19:44 -17.31955 -64.55900 37257 ft 441 kts 284°
2026-04-23 19:44 -17.31239 -64.59009 37662 ft 439 kts 286°
2026-04-23 19:45 -17.30497 -64.62105 38072 ft 438 kts 286°
2026-04-23 19:45 -17.29765 -64.65195 38405 ft 438 kts 285°
2026-04-23 19:45 -17.29051 -64.68287 38759 ft 437 kts 285°
2026-04-23 19:45 -17.28356 -64.71380 39065 ft 436 kts 285°
2026-04-23 19:46 -17.27676 -64.74464 39325 ft 435 kts 285°
2026-04-23 19:46 -17.27001 -64.77558 39577 ft 435 kts 285°
2026-04-23 19:46 -17.26331 -64.80643 39845 ft 435 kts 285°
2026-04-23 19:46 -17.25662 -64.83727 40095 ft 435 kts 285°
2026-04-23 19:47 -17.25217 -64.85779 40084 ft 439 kts 285°
2026-04-23 19:47 -17.23629 -64.93076 40089 ft 439 kts 285°
2026-04-23 19:48 -17.22286 -64.99246 40110 ft 431 kts 285°
2026-04-23 19:48 -17.20953 -65.05346 40113 ft 429 kts 285°
2026-04-23 19:49 -17.19624 -65.11416 40108 ft 428 kts 285°
2026-04-23 19:49 -17.18296 -65.17477 40098 ft 427 kts 285°
2026-04-23 19:50 -17.16968 -65.23526 40126 ft 427 kts 285°
2026-04-23 19:50 -17.15638 -65.29579 40135 ft 427 kts 285°
2026-04-23 19:51 -17.14305 -65.35633 40125 ft 428 kts 285°
2026-04-23 19:51 -17.13190 -65.40690 40173 ft 430 kts 285°
2026-04-23 19:52 -17.11846 -65.46782 40132 ft 430 kts 285°
2026-04-23 19:52 -17.10499 -65.52879 40167 ft 431 kts 285°
2026-04-23 19:53 -17.09146 -65.58991 40170 ft 432 kts 285°
2026-04-23 19:53 -17.07796 -65.65107 40204 ft 432 kts 285°
2026-04-23 19:54 -17.06442 -65.71232 40200 ft 432 kts 285°
2026-04-23 19:54 -17.05092 -65.77349 40235 ft 431 kts 285°
2026-04-23 19:55 -17.03741 -65.83449 40232 ft 431 kts 285°
2026-04-23 19:55 -17.02390 -65.89548 40284 ft 430 kts 285°
2026-04-23 19:56 -17.01060 -65.95646 40278 ft 430 kts 285°
2026-04-23 19:56 -16.99736 -66.01733 40318 ft 429 kts 285°
2026-04-23 19:57 -16.98415 -66.07809 40311 ft 428 kts 285°
2026-04-23 19:57 -16.97088 -66.13881 40321 ft 429 kts 285°
2026-04-23 19:58 -16.95769 -66.19912 40311 ft 429 kts 285°
2026-04-23 19:58 -16.94440 -66.25983 40301 ft 428 kts 285°
2026-04-23 19:59 -16.93115 -66.32037 40316 ft 428 kts 284°
2026-04-23 19:59 -16.91802 -66.38097 40311 ft 427 kts 285°
2026-04-23 20:00 -16.90493 -66.44145 40310 ft 428 kts 285°
2026-04-23 20:00 -16.89178 -66.50205 40319 ft 428 kts 285°
2026-04-23 20:01 -16.87860 -66.56264 40299 ft 428 kts 285°
2026-04-23 20:01 -16.86543 -66.62309 40271 ft 427 kts 285°
2026-04-23 20:02 -16.85226 -66.68349 40262 ft 426 kts 285°
2026-04-23 20:02 -16.83907 -66.74384 40262 ft 427 kts 285°
2026-04-23 20:03 -16.82584 -66.80429 40229 ft 427 kts 285°
2026-04-23 20:03 -16.81262 -66.86465 40224 ft 426 kts 285°
2026-04-23 20:04 -16.79938 -66.92497 40191 ft 425 kts 285°
2026-04-23 20:04 -16.78617 -66.98509 40215 ft 425 kts 285°
2026-04-23 20:04 -16.77954 -67.01521 40008 ft 429 kts 285°
2026-04-23 20:05 -16.77283 -67.04568 39543 ft 430 kts 285°
2026-04-23 20:05 -16.76611 -67.07616 38981 ft 430 kts 284°
2026-04-23 20:05 -16.75941 -67.10657 38333 ft 430 kts 284°
2026-04-23 20:05 -16.75270 -67.13697 37678 ft 430 kts 284°
2026-04-23 20:06 -16.74599 -67.16738 37036 ft 430 kts 284°
2026-04-23 20:06 -16.73928 -67.19777 36493 ft 428 kts 284°
2026-04-23 20:06 -16.73260 -67.22794 36028 ft 425 kts 284°
2026-04-23 20:06 -16.72598 -67.25790 35535 ft 422 kts 284°
2026-04-23 20:07 -16.71940 -67.28763 35053 ft 420 kts 283°
2026-04-23 20:07 -16.71559 -67.31733 34540 ft 420 kts 270°
2026-04-23 20:07 -16.71687 -67.34764 34072 ft 418 kts 268°
2026-04-23 20:07 -16.71866 -67.37783 33548 ft 416 kts 267°
2026-04-23 20:08 -16.72045 -67.40788 33066 ft 413 kts 267°
2026-04-23 20:08 -16.72206 -67.43771 32581 ft 411 kts 267°
2026-04-23 20:08 -16.72350 -67.46733 32116 ft 408 kts 268°
2026-04-23 20:08 -16.72485 -67.49684 31662 ft 406 kts 268°
2026-04-23 20:09 -16.72614 -67.52613 31202 ft 404 kts 268°
2026-04-23 20:09 -16.72741 -67.55535 30741 ft 402 kts 267°
2026-04-23 20:09 -16.72868 -67.58444 30280 ft 401 kts 266°
2026-04-23 20:09 -16.72997 -67.61346 29761 ft 400 kts 266°
2026-04-23 20:10 -16.73083 -67.63298 29430 ft 397 kts 266°
2026-04-23 20:10 -16.73250 -67.67087 28775 ft 394 kts 266°
2026-04-23 20:10 -16.73375 -67.69935 28268 ft 391 kts 266°
2026-04-23 20:10 -16.73498 -67.72744 27800 ft 388 kts 267°
2026-04-23 20:11 -16.73621 -67.75556 27330 ft 385 kts 266°
2026-04-23 20:11 -16.73742 -67.78336 26868 ft 383 kts 266°
2026-04-23 20:11 -16.73862 -67.81103 26379 ft 381 kts 266°
2026-04-23 20:11 -16.73981 -67.83858 25899 ft 379 kts 266°
2026-04-23 20:12 -16.74099 -67.86597 25422 ft 378 kts 267°
2026-04-23 20:12 -16.74217 -67.89333 24951 ft 377 kts 267°
2026-04-23 20:12 -16.74334 -67.92059 24497 ft 376 kts 266°
2026-04-23 20:12 -16.74450 -67.94778 24045 ft 375 kts 267°
2026-04-23 20:13 -16.74494 -67.97496 23553 ft 375 kts 275°
2026-04-23 20:13 -16.73961 -68.00149 23057 ft 373 kts 284°
2026-04-23 20:13 -16.73288 -68.02747 22583 ft 370 kts 285°
2026-04-23 20:13 -16.72600 -68.05330 22144 ft 367 kts 285°
2026-04-23 20:14 -16.71926 -68.07888 21701 ft 364 kts 285°
2026-04-23 20:14 -16.71269 -68.10424 21260 ft 361 kts 285°
2026-04-23 20:14 -16.70624 -68.12949 20803 ft 359 kts 285°
2026-04-23 20:14 -16.69989 -68.15455 20367 ft 356 kts 285°
2026-04-23 20:15 -16.69363 -68.17939 19890 ft 354 kts 285°
2026-04-23 20:15 -16.68745 -68.20397 19654 ft 345 kts 284°
2026-04-23 20:15 -16.68145 -68.22781 19478 ft 334 kts 284°
2026-04-23 20:15 -16.67565 -68.25087 19329 ft 323 kts 285°
2026-04-23 20:16 -16.67004 -68.27318 19193 ft 312 kts 284°
2026-04-23 20:16 -16.66463 -68.29467 19049 ft 300 kts 285°
2026-04-23 20:16 -16.65945 -68.31520 18922 ft 287 kts 285°
2026-04-23 20:16 -16.65451 -68.33479 18820 ft 272 kts 285°
2026-04-23 20:17 -16.64982 -68.35339 18570 ft 260 kts 285°
2026-04-23 20:17 -16.64342 -68.37024 18223 ft 244 kts 307°
2026-04-23 20:17 -16.63111 -68.38134 17975 ft 228 kts 332°
2026-04-23 20:17 -16.61641 -68.38664 17480 ft 225 kts 355°
2026-04-23 20:18 -16.60111 -68.38703 17196 ft 218 kts
2026-04-23 20:18 -16.58614 -68.38646 16946 ft 211 kts
2026-04-23 20:18 -16.57165 -68.38586 16697 ft 205 kts
2026-04-23 20:18 -16.55756 -68.38531 16477 ft 202 kts
2026-04-23 20:19 -16.54360 -68.38479 16261 ft 199 kts
2026-04-23 20:19 -16.53012 -68.38320 16021 ft 197 kts 22°
2026-04-23 20:19 -16.51872 -68.37589 15842 ft 191 kts 46°
2026-04-23 20:19 -16.51129 -68.36451 15653 ft 192 kts 70°
2026-04-23 20:20 -16.50920 -68.35088 15504 ft 192 kts 87°
2026-04-23 20:20 -16.50893 -68.33689 15321 ft 194 kts 90°
2026-04-23 20:20 -16.50915 -68.32274 14995 ft 194 kts 91°
2026-04-23 20:20 -16.50974 -68.30892 14753 ft 187 kts 93°
2026-04-23 20:21 -16.51027 -68.29618 14696 ft 164 kts 91°
2026-04-23 20:21 -16.51067 -68.28458 14421 ft 158 kts 92°
2026-04-23 20:21 -16.51094 -68.27318 14306 ft 159 kts 91°
2026-04-23 20:21 -16.51122 -68.26147 14095 ft 166 kts 90°
2026-04-23 20:22 -16.51157 -68.24934 13835 ft 170 kts 91°
2026-04-23 20:22 -16.51197 -68.23712 13646 ft 168 kts 90°
2026-04-23 20:22 -16.51235 -68.22472 13413 ft 174 kts 89°
2026-04-23 20:22 -16.51272 -68.21214 13228 ft 172 kts 90°
2026-04-23 20:23 -16.51309 -68.20024 13225 ft 150 kts 90°
2026-04-23 20:23 -16.51337 -68.19092 13283 ft 107 kts 91°
2026-04-23 20:23 -16.51354 -68.18518 13296 ft 27 kts 91°
2026-04-23 20:23 -16.51330 -68.18319 13300 ft 27 kts 72°
2026-04-23 20:24 -16.51241 -68.18155 13306 ft 25 kts 52°
2026-04-23 20:24 -16.51127 -68.18027 13327 ft 22 kts 48°
2026-04-23 20:24 -16.51037 -68.17924 13334 ft 18 kts 46°
2026-04-23 20:24 -16.50991 -68.17830 13335 ft 14 kts 86°
2026-04-23 20:25 -16.51004 -68.17738 13334 ft 12 kts 116°
2026-04-23 20:25 -16.51036 -68.17672 13335 ft 7 kts 101°
2026-04-23 20:25 -16.51023 -68.17657 13334 ft 1 kts
2026-04-23 20:25 -16.51012 -68.17656 13334 ft 2 kts
2026-04-23 20:26 -16.50996 -68.17655 13335 ft 2 kts
2026-04-23 20:26 -16.50983 -68.17654 13335 ft 0 kts